Погода в Айтеке-Би

Казахстан     45°50′49″N   62°09′04″E
темп.,
°C
ветер,
м/с
пор.,
м/с
влажн.,
%
обл.,
%
осадки,
мм/ч
давл.,
гПа
погр.,
м
25 февраля, чт
чт2523:00−20зсз71171100 0.4 1025794
02:00−21зсз6107357 0.0 1027617
05:00−21зсз6107572 0.0 1030525
08:00−21зсз587943 0.0 1033398
11:00−17зсз676322 0.0 1035506
14:00−14зсз56520 0.0 1037847
17:00−13зсз46570 0.0 1037862
20:00−16зсз347213 0.0 1039202
26 февраля, пт
пт2623:00−17сз22786 0.0 1039113
02:00−17зюз11770 0.0 103966
05:00−17зюз00770 0.0 103841
08:00−15вюв228076 0.0 103785
11:00−11юв567686 0.0 1037349
14:00−7ю687698 0.0 1034740
17:00−6ю796899 0.0 1032726
20:00−8ю7117097 0.0 1031398
27 февраля, сб
сб2723:00−9ююв6116881 0.0 1030293
02:00−9ююв7116563 0.0 1028274
05:00−9ююв6116368 0.0 1027269
08:00−8ююв7135883 0.0 1025367
11:00−3ю9136479 0.0 1025752
14:00−1ю10147199 0.0 1023792
17:00−1ю101587100 0.1 1022570
20:000ю101596100 0.6 1020386
28 февраля, вс
вс2823:00+2ююз91596100 0.9 1019393
02:00+3юз71597100 0.6 1018472
05:00+3юз81693100 0.6 1017577
08:00+3ююз81595100 0.2 1018508
11:00+4юз91578100 0.3 1017857
14:00+6юз11146298 0.0 10171182
17:00+5юз8126495 0.0 1017747
20:00+1ююз6117056 0.0 1017213
1 марта, пн
пн123:00+1ююз6116472 0.0 1017201
02:00+1ююз51058100 0.0 1017204
05:00+1ююз5957100 0.0 1017181
08:00+1ююз4666100 0.0 1017127
11:00+4юз3574100 0.1 1018255
14:00+3зсз1294100 0.3 101940
17:00+2ссз3498100 0.8 101998
20:00+1ссз4598100 0.6 1021136